DW0108 Weather Reports


Display with metric or nautical units.
time (UTC)temp
F
wind
direction
speed
MPH
gust
MPH
rain 1hr
in
rain 24hr
in
rain mn
in
humidity
%
barometer
mb
20260506043808 65 128 2.0 6.0 0.00 0.00 0.00 77 1010.1
20260506042847 65 117 3.0 7.0 0.00 0.00 0.00 77 1010.1
20260506041830 66 307 4.0 8.0 0.00 0.00 0.00 78 1009.8
20260506040826 67 180 4.0 8.0 0.00 0.00 0.00 76 1010.1
20260506034842 67 175 3.0 5.0 0.00 0.00 0.00 75 1009.8
20260506032821 68 152 2.0 5.0 0.00 0.00 0.00 73 1009.4
20260506031826 68 217 4.0 6.0 0.00 0.00 0.00 73 1009.1
20260506030831 68 180 3.0 7.0 0.00 0.00 0.00 72 1009.1
20260506025818 69 89 3.0 9.0 0.00 0.00 0.00 72 1008.4
20260506024820 69 124 3.0 5.0 0.00 0.00 0.00 71 1008.4
20260506021841 71 151 3.0 7.0 0.00 0.00 0.00 71 1008.1
20260506020843 71 277 3.0 8.0 0.00 0.00 0.00 71 1007.7
20260506015826 71 277 3.0 7.0 0.00 0.00 0.00 71 1007.4
20260506014822 72 241 2.0 4.0 0.00 0.00 0.00 70 1007.4
20260506013845 73 184 2.0 5.0 0.00 0.00 0.00 69 1007.1
20260506012804 73 84 3.0 6.0 0.00 0.00 0.00 69 1006.7
20260506011816 74 153 2.0 4.0 0.00 0.00 0.00 68 1006.7
20260506010840 74 310 3.0 6.0 0.00 0.00 0.00 67 1006.4
20260506005813 74 306 2.0 4.0 0.00 0.00 0.00 66 1006.0
20260506004809 75 120 2.0 3.0 0.00 0.00 0.00 67 1006.0
20260506003846 75 239 3.0 6.0 0.00 0.00 0.00 66 1006.0
20260506002829 76 180 3.0 5.0 0.00 0.00 0.00 65 1005.7
20260506001804 77 160 1.0 5.0 0.00 0.00 0.00 63 1006.0
20260506000804 77 97 1.0 3.0 0.00 0.00 0.00 62 1005.7
20260505234810 78 205 3.0 9.0 0.00 0.00 0.00 62 1005.7
20260505233834 79 279 3.0 7.0 0.00 0.00 0.00 61 1005.4
20260505232839 80 183 2.0 4.0 0.00 0.00 0.00 62 1005.0
20260505231815 81 213 3.0 6.0 0.00 0.00 0.00 63 1005.0
20260505230810 81 211 3.0 6.0 0.00 0.00 0.00 62 1005.0
20260505225808 83 221 3.0 6.0 0.00 0.00 0.00 61 1004.7
20260505224841 84 148 1.0 3.0 0.00 0.00 0.00 54 1004.7
20260505222819 86 308 3.0 4.0 0.00 0.00 0.00 49 1004.7
20260505221832 87 276 2.0 4.0 0.00 0.00 0.00 49 1004.7
20260505215829 91 274 1.0 2.0 0.00 0.00 0.00 48 1004.0
20260505213833 90 327 1.0 3.0 0.00 0.00 0.00 48 1004.0
20260505211840 90 280 1.0 3.0 0.00 0.00 0.00 48 1004.3
20260505210846 90 296 1.0 3.0 0.00 0.00 0.00 46 1004.7
20260505205808 90 277 1.0 3.0 0.00 0.00 0.00 46 1004.7
20260505204830 90 210 1.0 3.0 0.00 0.00 0.00 47 1004.7
20260505203816 90 236 0.0 2.0 0.00 0.00 0.00 52 1005.0
20260505202823 90 179 1.0 4.0 0.00 0.00 0.00 51 1005.0
20260505201816 90 232 1.0 5.0 0.00 0.00 0.00 53 1005.0
20260505195829 90 213 2.0 4.0 0.00 0.00 0.00 53 1005.0
20260505194810 89 222 2.0 5.0 0.00 0.00 0.00 53 1005.4
20260505193806 90 230 1.0 4.0 0.00 0.00 0.00 52 1005.4
20260505192838 89 205 2.0 5.0 0.00 0.00 0.00 56 1005.4
20260505191809 89 211 2.0 7.0 0.00 0.00 0.00 56 1005.4
20260505190838 88 230 2.0 4.0 0.00 0.00 0.00 55 1005.4
20260505185825 88 187 2.0 5.0 0.00 0.00 0.00 56 1005.4
20260505184837 87 233 2.0 5.0 0.00 0.00 0.00 59 1005.0
20260505183805 87 225 1.0 4.0 0.00 0.00 0.00 62 1005.7
20260505182817 86 183 2.0 6.0 0.00 0.00 0.00 59 1005.7
20260505181805 85 195 2.0 6.0 0.00 0.00 0.00 65 1005.7
20260505174844 83 182 3.0 7.0 0.00 0.00 0.00 68 1005.7
20260505173826 83 174 2.0 4.0 0.00 0.00 0.00 69 1006.0
20260505172847 83 183 2.0 5.0 0.00 0.00 0.00 69 1006.0
20260505171831 82 164 5.0 8.0 0.00 0.00 0.00 73 1006.0
20260505170824 81 165 3.0 5.0 0.00 0.00 0.00 73 1006.0
20260505164840 82 203 2.0 5.0 0.00 0.00 0.00 73 1006.0
20260505163828 80 175 4.0 11.0 0.00 0.00 0.00 74 1005.7
20260505162835 80 170 3.0 7.0 0.00 0.00 0.00 75 1006.0
20260505161835 80 160 4.0 9.0 0.00 0.00 0.00 75 1005.7
20260505152845 77 158 4.0 9.0 0.00 0.00 0.00 81 1005.4
20260505151845 76 190 3.0 7.0 0.00 0.00 0.00 81 1005.4
20260505150843 77 181 4.0 10.0 0.00 0.00 0.00 80 1005.7
20260505124830 71 160 3.0 11.0 0.00 0.00 0.00 89 1005.0
20260505123805 71 158 2.0 5.0 0.00 0.00 0.00 89 1004.7
20260505122840 71 156 4.0 9.0 0.00 0.00 0.00 89 1005.0
20260505121827 71 176 3.0 8.0 0.00 0.00 0.00 89 1004.7
20260505120831 71 181 3.0 6.0 0.00 0.00 0.00 89 1004.7
20260505115825 71 157 2.0 5.0 0.00 0.00 0.00 89 1004.7
20260505114849 70 172 2.0 6.0 0.00 0.00 0.00 90 1004.3
20260505113825 71 157 4.0 8.0 0.00 0.00 0.00 89 1004.7
20260505112810 71 157 4.0 6.0 0.00 0.00 0.00 89 1004.7
20260505111847 70 150 4.0 9.0 0.00 0.00 0.00 90 1004.7
20260505110843 70 152 2.0 6.0 0.00 0.00 0.00 90 1004.0
20260505101825 70 153 4.0 8.0 0.00 0.00 0.00 90 1004.0
20260505100845 70 164 2.0 8.0 0.00 0.00 0.00 90 1004.3
20260505095835 70 160 4.0 7.0 0.00 0.00 0.00 90 1004.3
20260505094839 70 154 3.0 6.0 0.00 0.00 0.00 90 1004.3
20260505093828 70 157 4.0 5.0 0.00 0.00 0.00 90 1004.3
20260505092819 70 164 3.0 7.0 0.00 0.00 0.00 90 1004.3
20260505091837 70 157 4.0 7.0 0.00 0.00 0.00 90 1004.7
20260505090820 70 158 5.0 9.0 0.00 0.00 0.00 89 1005.0
20260505085844 70 163 4.0 7.0 0.00 0.00 0.00 89 1005.0
20260505084835 70 158 4.0 7.0 0.00 0.00 0.00 89 1005.0
20260505083838 70 173 3.0 8.0 0.00 0.00 0.00 88 1005.0
20260505082835 71 160 5.0 10.0 0.00 0.00 0.00 87 1005.0
20260505081842 71 150 3.0 8.0 0.00 0.00 0.00 87 1005.0
20260505080822 71 159 4.0 8.0 0.00 0.00 0.00 86 1005.0
20260505074839 72 153 4.0 10.0 0.00 0.00 0.00 84 1005.0
20260505073816 72 168 5.0 10.0 0.00 0.00 0.00 83 1005.4
20260505072813 72 165 3.0 8.0 0.00 0.00 0.00 82 1005.4
20260505070837 72 156 4.0 10.0 0.00 0.00 0.00 81 1005.7
20260505065837 72 154 5.0 9.0 0.00 0.00 0.00 81 1005.7
20260505064816 72 148 3.0 8.0 0.00 0.00 0.00 80 1006.0
20260505063837 72 158 4.0 9.0 0.00 0.00 0.00 80 1006.0
20260505061827 73 160 3.0 6.0 0.00 0.00 0.00 79 1006.0
20260505055805 73 154 4.0 9.0 0.00 0.00 0.00 78 1006.4
20260505054838 73 162 4.0 9.0 0.00 0.00 0.00 78 1006.0
20260505053831 73 155 4.0 8.0 0.00 0.00 0.00 77 1006.4
20260505052821 74 160 4.0 7.0 0.00 0.00 0.00 77 1006.0
20260505051830 74 160 4.0 8.0 0.00 0.00 0.00 77 1006.0
20260505050818 74 158 5.0 10.0 0.00 0.00 0.00 77 1006.0